User: anonymous   Login
Location: Irma
(52.9170°N, 111.2330°W)
Time: 15:48:00
(UTC-06:00)
Language:

Cosmos 1633 Rocket - Orbit

View from above orbital plane
View from above orbital plane
View from above satellite
View from above satellite

Ground track
Ground track

The orbit data is extracted from the following two-line orbital elements,

1 15593U 85020B   15114.98441948  .00000815  00000-0  94941-4 0  9992
2 15593 082.5358 276.3687 0013178 107.8976 040.8131 14.84021077628055
Epoch (UTC): 24 April 2015 23:37:33
Eccentricity: 0.0013178
inclination: 82.5358°
perigee height: 607 km
apogee height: 626 km
right ascension of ascending node: 276.3687°
argument of perigee: 107.8976°
revolutions per day: 14.84021077
mean anomaly at epoch: 40.8131°
orbit number at epoch: 62805

The dashed part of the orbit path shows where the satellite is in the earth's shadow,  

DLR